Terug naar catalogus

ONEWEB-0054

ActiefCommunicatiePO
NORAD 45158·PAYLOAD·🇬🇧 United Kingdom

Gelanceerd Feb 6, 2020 vanaf Baikonur Cosmodrome

Loading…

Volgende Passages (komende 24 uur)

TLE

VersSource: CelesTrak SupGP

Epoch: Sep 14, 2026, 23:29 UTC

1 45158C 20008AD  26257.97898563 -.00001530  00000+0 -43898-2 0  2571
2 45158  87.8895  18.3920 0001706 104.2958   5.6074 13.10369911    13

Volg ONEWEB-0054 in realtime met AllMySat

Download on the App Store